Regional Weather Roundup
Issued by NWS Jackson, KY

Home | Current Version | Previous Version | Text Only | Print | Product List | Glossary Off
Versions: 1 2 3 4 5 6 7 8 9 10 11 12 13 14 15 16 17 18 19 20 21 22 23 24 25 26 27 28 29 30 31 32 33 34 35 36 37 38 39 40 41 42 43 44 45 46 47 48 49 50

000
ASUS43 KJKL 190911
RWRJKL

EAST KENTUCKY HOURLY WEATHER ROUNDUP
NATIONAL WEATHER SERVICE JACKSON KY
500 AM EDT SAT APR 19 2014

NOTE: "FAIR" INDICATES FEW OR NO CLOUDS BELOW 12,000 FEET WITH
NO SIGNIFICANT WEATHER AND/OR OBSTRUCTIONS TO VISIBILITY.

* THESE REPORTS ARE NOT UNDER NWS QUALITY CONTROL AND MAY NOT
  REPORT WEATHER SUCH AS PRECIPITATION AND FOG.

KYZ079-080-083-085-087-088-110-112-115-119-120-191000
...EASTERN KENTUCKY...

CITY           SKY/WX    TMP DP  RH WIND       PRES   REMARKS
JACKSON        PTCLDY    55  33  43 CALM      30.18S
LONDON         MOCLDY    53  37  54 N6        30.18R
SOMERSET*      CLEAR     46  37  71 CALM      30.20R
MONTICELLO*    CLEAR     40  39  96 CALM      30.20R
WILLIAMSBURG*  CLEAR     46  45  93 CALM      30.17S
MIDDLESBORO*   MOCLDY    45  42  89 CALM      30.17S
HARLAN APT*    CLOUDY    46  39  76 CALM      30.16S
BLACK MTN*       N/A     48  36  61 N13         N/A
PIKEVILLE APT* CLEAR     54  34  47 N8        30.18R
BIG SANDY*     CLOUDY    54  36  49 NE6       30.18S
MOREHEAD APT*  PTSUNNY   50  36  57 N3        30.23R
$$

KYZ035-036-041-042-044-050-067-078-099-191000
...CENTRAL KENTUCKY...

CITY           SKY/WX    TMP DP  RH WIND       PRES   REMARKS
MT STERLING*   CLEAR     46  37  71 NE5       30.23R
FLEMING/MASON* CLEAR     50  37  62 NE6       30.23R
DANVILLE*      PTCLDY    43  37  81 CALM      30.21S
LEXINGTON      CLEAR     49  38  65 N8        30.21S
FRANKFORT      CLEAR     52  39  61 N6        30.21R
$$

KYZ091>093-OHZ055-061-077-WVZ005-015-034-035-042-191000
...SOUTHERN OHIO/WEST VIRGINIA...

CITY           SKY/WX    TMP DP  RH WIND       PRES   REMARKS
COVINGTON      MOCLDY    50  37  61 N8        30.23S
COLUMBUS       PTCLDY    50  40  68 NE8       30.26R
DAYTON         PTCLDY    44  38  79 N8        30.27R
WILMINGTON     CLEAR     48  38  68 N8        30.24S
HUNTINGTON     MOCLDY    52  37  56 CALM      30.20R
CHARLESTON     MOCLDY    48  43  82 CALM      30.19S
PINEVILLE*     CLOUDY    46  41  85 MISG      30.22S
BECKLEY        CLOUDY    47  32  56 E3        30.18F
BLUEFIELD      CLOUDY    50  31  48 E3        30.19R
$$

VAZ002-007-008-TNZ017-027-036-066-071-191000
...SOUTHWEST VIRGINIA/EAST TENNESSEE...

CITY           SKY/WX    TMP DP  RH WIND       PRES   REMARKS
WISE*          CLOUDY    52  34  50 N6        30.18S
ABINGDON*      CLOUDY    53  35  52 E7        30.15F
BRISTOL        CLOUDY    50  37  61 CALM      30.13F
KNOXVILLE      CLOUDY    54  41  61 N6        30.11F
OAK RIDGE      CLOUDY    52  42  69 CALM      30.14S
CROSSVILLE     CLOUDY    49  40  71 N3        30.17R
NASHVILLE      PTCLDY    53  46  77 NW3       30.19R
$$

...KEY TO REMARKS...
VSB - VISIBILITY IN MILES
WCI - WIND CHILL INDEX
HX  - HEAT INDEX

$$



USA.gov is the U.S. government's official web portal to all federal, state and local government web resources and services.